site,interval,poc,DATE,RECORD,batt_volt_Min,PTemp,AethDate,AethTime,AethChan1,AethChan2,AethChan3,AethChan4,AethChan5,AethChan6,AethChan7,AethFlow,AethDelta,Aeth_count,Aeth_perc,Aeth_data_flag
IP,001m,1,2024-05-29 08:30:29,53,12.01,24.36,29-May-24,09:29,542.0,457.0,448.0,434.0,427.0,415.0,406.0,5.0,127.0,0.0,1.0,,
IP,001m,1,2024-05-29 08:31:29,54,12.01,24.42,29-May-24,09:30,250.0,215.0,224.0,198.0,180.0,237.0,258.0,5.0,13.0,0.0,1.0,,
IP,001m,1,2024-05-29 08:32:29,55,12.01,24.42,29-May-24,09:31,-72.0,6.0,-8.0,-11.0,19.0,-69.0,-83.0,5.0,-3.0,0.0,1.0,,
IP,001m,1,2024-05-29 08:33:29,56,12.01,24.33,29-May-24,09:32,133.0,140.0,148.0,156.0,113.0,121.0,138.0,5.0,12.0,0.0,1.0,,
IP,001m,1,2024-05-29 08:34:29,57,12.01,24.22,29-May-24,09:33,600.0,507.0,491.0,472.0,481.0,566.0,570.0,5.0,34.0,0.0,1.0,,
IP,001m,1,2024-05-29 08:35:29,58,12.01,24.1,29-May-24,09:34,1201.0,1057.0,1032.0,1022.0,1022.0,1234.0,1314.0,5.0,-33.0,0.0,1.0,,
IP,001m,1,2024-05-29 08:36:29,59,12.01,23.99,29-May-24,09:35,542.0,585.0,574.0,542.0,563.0,668.0,645.0,5.0,-126.0,0.0,1.0,,
IP,001m,1,2024-05-29 08:37:29,60,12.01,23.9,29-May-24,09:36,597.0,638.0,627.0,635.0,603.0,661.0,692.0,5.0,-64.0,0.0,1.0,,
IP,001m,1,2024-05-29 08:38:29,61,12.01,23.87,29-May-24,09:37,398.0,418.0,418.0,433.0,406.0,440.0,426.0,5.0,-42.0,0.0,1.0,,
IP,001m,1,2024-05-29 08:39:29,62,12.01,23.9,29-May-24,09:38,364.0,404.0,408.0,374.0,385.0,373.0,375.0,5.0,-9.0,0.0,1.0,,
IP,001m,1,2024-05-29 08:40:29,63,12.01,23.99,29-May-24,09:39,303.0,337.0,359.0,343.0,343.0,321.0,276.0,5.0,-18.0,0.0,1.0,,
IP,001m,1,2024-05-29 08:41:29,64,12.0,24.04,29-May-24,09:40,-449.0,-321.0,-296.0,-276.0,-278.0,-418.0,-458.0,5.0,-31.0,0.0,1.0,,
IP,001m,1,2024-05-29 08:42:29,65,12.01,24.13,29-May-24,09:41,243.0,283.0,235.0,232.0,207.0,169.0,199.0,5.0,74.0,0.0,1.0,,
IP,001m,1,2024-05-29 08:43:29,66,12.02,24.19,29-May-24,09:42,320.0,279.0,276.0,257.0,266.0,260.0,262.0,5.0,60.0,0.0,1.0,,
IP,001m,1,2024-05-29 08:44:29,67,12.0,24.22,29-May-24,09:43,393.0,383.0,375.0,347.0,327.0,345.0,371.0,5.0,48.0,0.0,1.0,,
IP,001m,1,2024-05-29 08:45:29,68,12.02,24.16,29-May-24,09:44,61.0,116.0,119.0,154.0,148.0,91.0,127.0,5.0,-30.0,0.0,1.0,,
IP,001m,1,2024-05-29 08:46:29,69,12.02,24.04,29-May-24,09:45,223.0,250.0,262.0,216.0,214.0,227.0,174.0,5.0,-4.0,0.0,1.0,,
IP,001m,1,2024-05-29 08:47:29,70,12.01,23.9,29-May-24,09:46,229.0,248.0,236.0,239.0,238.0,237.0,252.0,5.0,-8.0,0.0,1.0,,
IP,001m,1,2024-05-29 08:48:29,71,12.02,23.81,29-May-24,09:47,333.0,333.0,319.0,320.0,297.0,303.0,345.0,5.0,30.0,0.0,1.0,,
IP,001m,1,2024-05-29 08:49:29,72,12.01,23.78,29-May-24,09:48,182.0,218.0,206.0,217.0,218.0,189.0,136.0,5.0,-7.0,0.0,1.0,,
IP,001m,1,2024-05-29 08:50:29,73,12.01,23.84,29-May-24,09:49,-370.0,-270.0,-238.0,-262.0,-245.0,-358.0,-351.0,5.0,-12.0,0.0,1.0,,
IP,001m,1,2024-05-29 08:51:29,74,12.01,23.93,29-May-24,09:50,59.0,99.0,90.0,110.0,90.0,-32.0,-41.0,5.0,91.0,0.0,1.0,,
IP,001m,1,2024-05-29 08:52:29,75,12.02,24.01,29-May-24,09:51,213.0,204.0,177.0,151.0,151.0,161.0,164.0,5.0,52.0,0.0,1.0,,
IP,001m,1,2024-05-29 08:53:29,76,12.01,24.07,29-May-24,09:52,217.0,185.0,173.0,185.0,169.0,190.0,192.0,5.0,27.0,0.0,1.0,,
IP,001m,1,2024-05-29 08:54:29,77,12.02,24.16,29-May-24,09:53,1.0,40.0,58.0,66.0,40.0,18.0,-2.0,5.0,-17.0,0.0,1.0,,
IP,001m,1,2024-05-29 08:55:29,78,12.02,24.19,29-May-24,09:54,76.0,104.0,97.0,75.0,86.0,32.0,46.0,5.0,44.0,0.0,1.0,,
IP,001m,1,2024-05-29 08:56:29,79,12.02,24.13,29-May-24,09:55,182.0,195.0,166.0,179.0,158.0,172.0,197.0,5.0,10.0,0.0,1.0,,
IP,001m,1,2024-05-29 08:57:29,80,12.01,24.01,29-May-24,09:56,-7.0,11.0,28.0,43.0,43.0,2.0,-10.0,5.0,-9.0,0.0,1.0,,
IP,001m,1,2024-05-29 08:58:29,81,12.01,23.87,29-May-24,09:57,93.0,123.0,88.0,91.0,80.0,56.0,71.0,5.0,37.0,0.0,1.0,,
IP,001m,1,2024-05-29 08:59:29,82,12.02,23.75,29-May-24,09:58,141.0,149.0,183.0,125.0,167.0,132.0,134.0,5.0,9.0,0.0,1.0,,
IP,001m,1,2024-05-29 09:00:29,83,12.02,23.72,29-May-24,09:59,212.0,237.0,200.0,202.0,168.0,167.0,192.0,5.0,45.0,0.0,1.0,,
IP,001m,1,2024-05-29 09:01:29,84,12.02,23.75,29-May-24,10:00,183.0,144.0,175.0,159.0,163.0,157.0,146.0,5.0,26.0,0.0,1.0,,
IP,001m,1,2024-05-29 09:02:29,85,12.01,23.81,29-May-24,10:01,564.0,440.0,421.0,420.0,392.0,512.0,543.0,5.0,52.0,0.0,1.0,,
IP,001m,1,2024-05-29 09:03:29,86,12.01,23.9,29-May-24,10:02,-17.0,-2.0,13.0,6.0,22.0,-9.0,-38.0,5.0,-8.0,0.0,1.0,,
IP,001m,1,2024-05-29 09:04:29,87,12.02,23.99,29-May-24,10:03,28.0,70.0,44.0,51.0,64.0,15.0,29.0,5.0,13.0,0.0,1.0,,
IP,001m,1,2024-05-29 09:05:29,88,12.01,24.04,29-May-24,10:04,332.0,266.0,264.0,258.0,227.0,262.0,223.0,5.0,70.0,0.0,1.0,,
IP,001m,1,2024-05-29 09:06:29,89,12.01,24.1,29-May-24,10:05,-200.0,-114.0,-135.0,-116.0,-138.0,-193.0,-176.0,5.0,-7.0,0.0,1.0,,
IP,001m,1,2024-05-29 09:07:29,90,12.02,24.07,29-May-24,10:06,-151.0,-66.0,-41.0,-49.0,-28.0,-140.0,-143.0,5.0,-11.0,0.0,1.0,,
IP,001m,1,2024-05-29 09:08:29,91,12.02,23.99,29-May-24,10:07,234.0,236.0,232.0,212.0,200.0,206.0,229.0,5.0,28.0,0.0,1.0,,
IP,001m,1,2024-05-29 09:09:29,92,12.01,23.87,29-May-24,10:08,249.0,207.0,215.0,213.0,208.0,206.0,226.0,5.0,43.0,0.0,1.0,,
IP,001m,1,2024-05-29 09:10:29,93,12.01,23.7,29-May-24,10:09,235.0,254.0,238.0,233.0,202.0,265.0,236.0,5.0,-30.0,0.0,1.0,,
IP,001m,1,2024-05-29 09:11:29,94,12.01,23.64,29-May-24,10:10,495.0,390.0,386.0,356.0,385.0,417.0,452.0,5.0,78.0,0.0,1.0,,
IP,001m,1,2024-05-29 09:12:29,95,12.01,23.61,29-May-24,10:11,-25.0,36.0,-2.0,17.0,39.0,31.0,28.0,5.0,-56.0,0.0,1.0,,
IP,001m,1,2024-05-29 09:13:29,96,12.02,23.64,29-May-24,10:12,211.0,213.0,197.0,199.0,173.0,197.0,199.0,5.0,14.0,0.0,1.0,,
IP,001m,1,2024-05-29 09:14:29,97,12.02,23.72,29-May-24,10:13,187.0,147.0,179.0,123.0,146.0,116.0,123.0,5.0,71.0,0.0,1.0,,
IP,001m,1,2024-05-29 09:15:29,98,12.01,23.81,29-May-24,10:14,272.0,217.0,216.0,208.0,186.0,230.0,224.0,5.0,42.0,0.0,1.0,,
IP,001m,1,2024-05-29 09:16:29,99,12.01,23.9,29-May-24,10:15,430.0,389.0,364.0,382.0,382.0,420.0,430.0,5.0,10.0,0.0,1.0,,
IP,001m,1,2024-05-29 09:17:29,100,12.02,23.96,29-May-24,10:16,127.0,138.0,135.0,116.0,117.0,98.0,119.0,5.0,29.0,0.0,1.0,,
IP,001m,1,2024-05-29 09:18:29,101,12.02,24.01,29-May-24,10:17,350.0,306.0,292.0,301.0,286.0,303.0,301.0,5.0,47.0,0.0,1.0,,
IP,001m,1,2024-05-29 09:19:29,102,12.01,23.99,29-May-24,10:18,86.0,150.0,145.0,151.0,137.0,110.0,99.0,5.0,-24.0,0.0,1.0,,
IP,001m,1,2024-05-29 09:20:29,103,12.02,23.93,29-May-24,10:19,-113.0,-59.0,-44.0,-56.0,-64.0,-108.0,-122.0,5.0,-5.0,0.0,1.0,,
IP,001m,1,2024-05-29 09:21:29,104,12.02,23.84,29-May-24,10:20,39.0,117.0,128.0,117.0,128.0,64.0,56.0,5.0,-25.0,0.0,1.0,,
IP,001m,1,2024-05-29 09:22:29,105,12.01,23.7,29-May-24,10:21,167.0,184.0,163.0,160.0,142.0,109.0,119.0,5.0,58.0,0.0,1.0,,
IP,001m,1,2024-05-29 09:23:29,106,12.01,23.67,29-May-24,10:22,268.0,278.0,253.0,244.0,217.0,239.0,239.0,5.0,29.0,0.0,1.0,,
IP,001m,1,2024-05-29 09:24:29,107,12.01,23.72,29-May-24,10:23,58.0,72.0,63.0,51.0,78.0,47.0,34.0,5.0,11.0,0.0,1.0,,
IP,001m,1,2024-05-29 09:25:29,108,12.01,23.78,29-May-24,10:24,260.0,225.0,259.0,222.0,210.0,204.0,243.0,5.0,56.0,0.0,1.0,,
IP,001m,1,2024-05-29 09:26:29,109,12.01,23.87,29-May-24,10:25,41.0,66.0,45.0,57.0,51.0,58.0,12.0,5.0,-17.0,0.0,1.0,,
IP,001m,1,2024-05-29 09:27:29,110,12.01,23.96,29-May-24,10:26,284.0,256.0,246.0,253.0,227.0,244.0,237.0,5.0,40.0,0.0,1.0,,
IP,001m,1,2024-05-29 09:28:29,111,12.01,24.01,29-May-24,10:27,129.0,162.0,126.0,133.0,117.0,58.0,99.0,5.0,71.0,0.0,1.0,,
IP,001m,1,2024-05-29 09:29:29,112,12.01,24.1,29-May-24,10:28,193.0,176.0,188.0,151.0,170.0,174.0,127.0,5.0,19.0,0.0,1.0,,
IP,001m,1,2024-05-29 09:30:29,113,12.01,24.1,29-May-24,10:29,274.0,260.0,253.0,272.0,241.0,232.0,273.0,5.0,42.0,0.0,1.0,,
IP,001m,1,2024-05-29 09:31:29,114,12.01,23.99,29-May-24,10:30,-46.0,21.0,7.0,-6.0,-16.0,-26.0,-40.0,5.0,-20.0,0.0,1.0,,
IP,001m,1,2024-05-29 09:32:29,115,12.01,23.84,29-May-24,10:31,21.0,87.0,107.0,79.0,108.0,64.0,47.0,5.0,-43.0,0.0,1.0,,
IP,001m,1,2024-05-29 09:33:29,116,12.02,23.7,29-May-24,10:32,461.0,389.0,376.0,394.0,384.0,407.0,425.0,5.0,54.0,0.0,1.0,,
IP,001m,1,2024-05-29 09:35:29,118,12.02,23.72,29-May-24,10:34,388.0,342.0,322.0,325.0,292.0,330.0,335.0,5.0,58.0,0.0,1.0,,
IP,001m,1,2024-05-29 09:36:29,119,12.01,23.78,29-May-24,10:35,419.0,406.0,363.0,400.0,390.0,389.0,407.0,5.0,30.0,0.0,1.0,,
IP,001m,1,2024-05-29 09:39:29,122,12.02,24.01,29-May-24,10:38,413.0,404.0,405.0,368.0,374.0,359.0,394.0,5.0,54.0,0.0,1.0,,
IP,001m,1,2024-05-29 09:40:29,123,12.02,24.1,29-May-24,10:39,89.0,110.0,80.0,149.0,117.0,115.0,74.0,5.0,-26.0,0.0,1.0,,
IP,001m,1,2024-05-29 09:44:29,127,12.01,23.75,29-May-24,10:43,58.0,136.0,121.0,80.0,121.0,68.0,102.0,5.0,-10.0,0.0,1.0,,
IP,001m,1,2024-05-29 09:46:28,129,12.01,23.67,29-May-24,10:45,585.0,534.0,521.0,501.0,508.0,542.0,554.0,5.0,43.0,0.0,1.0,,
IP,001m,1,2024-05-29 09:47:28,130,12.02,23.7,29-May-24,10:46,468.0,380.0,407.0,395.0,388.0,414.0,427.0,5.0,54.0,0.0,1.0,,
IP,001m,1,2024-05-29 09:48:28,131,12.02,23.75,29-May-24,10:47,314.0,352.0,316.0,345.0,322.0,352.0,346.0,5.0,-38.0,0.0,1.0,,
IP,001m,1,2024-05-29 09:49:28,132,12.02,23.81,29-May-24,10:48,-38.0,17.0,13.0,12.0,13.0,-48.0,-52.0,5.0,10.0,0.0,1.0,,
IP,001m,1,2024-05-29 09:50:28,133,12.01,23.93,29-May-24,10:49,235.0,210.0,211.0,189.0,191.0,207.0,186.0,5.0,28.0,0.0,1.0,,
IP,001m,1,2024-05-29 09:51:28,134,12.01,24.04,29-May-24,10:50,322.0,322.0,315.0,309.0,310.0,278.0,274.0,5.0,44.0,0.0,1.0,,
IP,001m,1,2024-05-29 09:52:28,135,12.01,24.13,29-May-24,10:51,366.0,349.0,330.0,323.0,319.0,329.0,357.0,5.0,37.0,0.0,1.0,,
IP,001m,1,2024-05-29 09:53:28,136,12.02,24.19,29-May-24,10:52,210.0,245.0,258.0,261.0,221.0,210.0,211.0,5.0,0.0,0.0,1.0,,
IP,001m,1,2024-05-29 09:54:28,137,12.02,24.19,29-May-24,10:53,122.0,212.0,210.0,183.0,185.0,184.0,142.0,5.0,-62.0,0.0,1.0,,
IP,001m,1,2024-05-29 09:55:28,138,12.02,24.1,29-May-24,10:54,255.0,295.0,300.0,309.0,283.0,258.0,251.0,5.0,-3.0,0.0,1.0,,
IP,001m,1,2024-05-29 09:56:28,139,12.01,23.99,29-May-24,10:55,298.0,349.0,310.0,307.0,348.0,348.0,376.0,5.0,-50.0,0.0,1.0,,
IP,001m,1,2024-05-29 09:57:28,140,12.02,23.84,29-May-24,10:56,306.0,320.0,387.0,347.0,351.0,335.0,319.0,5.0,-29.0,0.0,1.0,,
IP,001m,1,2024-05-29 09:58:28,141,12.02,23.81,29-May-24,10:57,537.0,535.0,496.0,511.0,497.0,543.0,577.0,5.0,-6.0,0.0,1.0,,
IP,001m,1,2024-05-29 09:59:28,142,12.02,23.84,29-May-24,10:58,-271.0,-175.0,-142.0,-157.0,-152.0,-237.0,-273.0,5.0,-34.0,0.0,1.0,,
IP,001m,1,2024-05-29 10:00:28,143,12.02,23.87,29-May-24,10:59,386.0,370.0,348.0,357.0,316.0,340.0,343.0,5.0,46.0,0.0,1.0,,
IP,001m,1,2024-05-29 10:01:28,144,12.02,23.96,29-May-24,11:00,30.0,57.0,37.0,48.0,69.0,-8.0,4.0,5.0,38.0,0.0,1.0,,
IP,001m,1,2024-05-29 10:02:28,145,12.02,24.04,29-May-24,11:01,445.0,391.0,433.0,393.0,389.0,421.0,436.0,5.0,24.0,0.0,1.0,,
IP,001m,1,2024-05-29 10:03:28,146,12.01,24.16,29-May-24,11:02,195.0,189.0,176.0,202.0,172.0,165.0,165.0,5.0,30.0,0.0,1.0,,
IP,001m,1,2024-05-29 10:04:28,147,12.01,24.25,29-May-24,11:03,280.0,312.0,284.0,255.0,295.0,282.0,279.0,5.0,-2.0,0.0,1.0,,
IP,001m,1,2024-05-29 10:05:28,148,12.02,24.28,29-May-24,11:04,132.0,159.0,176.0,198.0,167.0,122.0,127.0,5.0,10.0,0.0,1.0,,
IP,001m,1,2024-05-29 10:06:28,149,12.01,24.25,29-May-24,11:05,199.0,282.0,241.0,251.0,237.0,242.0,227.0,5.0,-43.0,0.0,1.0,,
IP,001m,1,2024-05-29 10:07:28,150,12.02,24.16,29-May-24,11:06,252.0,288.0,328.0,314.0,296.0,303.0,281.0,5.0,-51.0,0.0,1.0,,
IP,001m,1,2024-05-29 10:08:28,151,12.02,23.99,29-May-24,11:07,907.0,908.0,833.0,760.0,767.0,718.0,751.0,5.0,189.0,0.0,1.0,,
IP,001m,1,2024-05-29 10:09:28,152,12.02,23.87,29-May-24,11:08,1265.0,1160.0,1098.0,1052.0,1016.0,1036.0,1099.0,5.0,229.0,0.0,1.0,,
IP,001m,1,2024-05-29 10:10:28,153,12.02,23.84,29-May-24,11:09,684.0,626.0,596.0,572.0,572.0,528.0,528.0,5.0,156.0,0.0,1.0,,
IP,001m,1,2024-05-29 10:11:28,154,12.01,23.87,29-May-24,11:10,407.0,378.0,362.0,345.0,311.0,246.0,273.0,5.0,161.0,0.0,1.0,,
IP,001m,1,2024-05-29 10:12:28,155,12.01,23.93,29-May-24,11:11,694.0,612.0,590.0,541.0,538.0,554.0,584.0,5.0,140.0,0.0,1.0,,
IP,001m,1,2024-05-29 10:13:28,156,12.02,24.01,29-May-24,11:12,804.0,682.0,662.0,619.0,624.0,673.0,689.0,5.0,131.0,0.0,1.0,,
IP,001m,1,2024-05-29 10:14:28,157,12.02,24.1,29-May-24,11:13,384.0,389.0,355.0,361.0,341.0,397.0,373.0,5.0,-13.0,0.0,1.0,,
IP,001m,1,2024-05-29 10:15:29,158,12.02,24.22,29-May-24,11:14,119.0,109.0,139.0,138.0,126.0,88.0,85.0,5.0,31.0,0.0,1.0,,
IP,001m,1,2024-05-29 10:16:28,159,12.02,24.28,29-May-24,11:15,114.0,170.0,147.0,140.0,133.0,45.0,15.0,5.0,69.0,0.0,1.0,,
IP,001m,1,2024-05-29 10:17:28,160,12.02,24.28,29-May-24,11:16,336.0,319.0,296.0,301.0,286.0,266.0,304.0,5.0,70.0,0.0,1.0,,
IP,001m,1,2024-05-29 10:18:28,161,12.01,24.25,29-May-24,11:17,132.0,177.0,169.0,138.0,138.0,136.0,137.0,5.0,-4.0,0.0,1.0,,
IP,001m,1,2024-05-29 10:19:28,162,12.02,24.13,29-May-24,11:18,241.0,297.0,277.0,252.0,241.0,219.0,232.0,5.0,22.0,0.0,1.0,,
IP,001m,1,2024-05-29 10:20:28,163,12.02,23.99,29-May-24,11:19,333.0,328.0,323.0,347.0,325.0,379.0,331.0,5.0,-46.0,0.0,1.0,,
IP,001m,1,2024-05-29 10:21:28,164,12.02,23.84,29-May-24,11:20,543.0,487.0,491.0,458.0,463.0,438.0,512.0,5.0,105.0,0.0,1.0,,
IP,001m,1,2024-05-29 10:22:28,165,12.02,23.87,29-May-24,11:21,569.0,507.0,505.0,488.0,469.0,539.0,549.0,5.0,30.0,0.0,1.0,,
IP,001m,1,2024-05-29 10:23:28,166,12.01,23.9,29-May-24,11:22,299.0,319.0,290.0,280.0,299.0,288.0,288.0,5.0,11.0,0.0,1.0,,
IP,001m,1,2024-05-29 10:24:28,167,12.02,23.99,29-May-24,11:23,417.0,353.0,366.0,374.0,376.0,377.0,396.0,5.0,40.0,0.0,1.0,,
IP,001m,1,2024-05-29 10:25:28,168,12.02,24.1,29-May-24,11:24,308.0,335.0,348.0,321.0,326.0,333.0,337.0,5.0,-25.0,0.0,1.0,,
IP,001m,1,2024-05-29 10:26:28,169,12.02,24.19,29-May-24,11:25,581.0,565.0,513.0,520.0,485.0,544.0,555.0,5.0,37.0,0.0,1.0,,
IP,001m,1,2024-05-29 10:27:28,170,12.02,24.28,29-May-24,11:26,203.0,251.0,252.0,279.0,270.0,227.0,193.0,5.0,-24.0,0.0,1.0,,
IP,001m,1,2024-05-29 10:28:28,171,12.02,24.3,29-May-24,11:27,163.0,218.0,236.0,210.0,220.0,200.0,204.0,5.0,-37.0,0.0,1.0,,
IP,001m,1,2024-05-29 10:29:28,172,12.02,24.3,29-May-24,11:28,82.0,156.0,166.0,168.0,162.0,135.0,98.0,5.0,-53.0,0.0,1.0,,
IP,001m,1,2024-05-29 10:30:28,173,12.02,24.22,29-May-24,11:29,-135.0,-15.0,-24.0,-26.0,-32.0,-108.0,-105.0,5.0,-27.0,0.0,1.0,,
IP,001m,1,2024-05-29 10:31:28,174,12.02,24.07,29-May-24,11:30,299.0,327.0,346.0,310.0,300.0,265.0,280.0,5.0,34.0,0.0,1.0,,
IP,001m,1,2024-05-29 10:32:28,175,12.02,23.9,29-May-24,11:31,430.0,446.0,420.0,429.0,425.0,430.0,448.0,5.0,0.0,0.0,1.0,,
IP,001m,1,2024-05-29 10:33:28,176,12.02,23.78,29-May-24,11:32,372.0,368.0,338.0,346.0,337.0,345.0,377.0,5.0,27.0,0.0,1.0,,
IP,001m,1,2024-05-29 10:34:28,177,12.02,23.81,29-May-24,11:33,667.0,576.0,616.0,589.0,583.0,640.0,651.0,5.0,27.0,0.0,1.0,,
IP,001m,1,2024-05-29 10:35:28,178,12.02,23.87,29-May-24,11:34,226.0,224.0,235.0,234.0,212.0,241.0,212.0,5.0,-15.0,0.0,1.0,,
IP,001m,1,2024-05-29 10:36:28,179,12.02,23.96,29-May-24,11:35,309.0,380.0,334.0,326.0,343.0,304.0,350.0,5.0,5.0,0.0,1.0,,
IP,001m,1,2024-05-29 10:37:28,180,12.01,24.1,29-May-24,11:36,159.0,151.0,176.0,199.0,196.0,185.0,177.0,5.0,-26.0,0.0,1.0,,
IP,001m,1,2024-05-29 10:38:28,181,12.02,24.19,29-May-24,11:37,182.0,205.0,173.0,157.0,176.0,128.0,126.0,5.0,54.0,0.0,1.0,,
IP,001m,1,2024-05-29 10:39:28,182,12.01,24.28,29-May-24,11:38,132.0,152.0,167.0,165.0,130.0,110.0,77.0,5.0,22.0,0.0,1.0,,
IP,001m,1,2024-05-29 10:40:28,183,12.02,24.33,29-May-24,11:39,-82.0,-37.0,-13.0,-31.0,-13.0,-69.0,-77.0,5.0,-13.0,0.0,1.0,,
IP,001m,1,2024-05-29 10:41:28,184,12.02,24.33,29-May-24,11:40,351.0,359.0,347.0,376.0,320.0,292.0,331.0,5.0,59.0,0.0,1.0,,
IP,001m,1,2024-05-29 10:42:28,185,12.02,24.28,29-May-24,11:41,23.0,107.0,110.0,60.0,92.0,81.0,47.0,5.0,-58.0,0.0,1.0,,
IP,001m,1,2024-05-29 10:43:28,186,12.01,24.13,29-May-24,11:42,107.0,174.0,144.0,173.0,156.0,102.0,125.0,5.0,5.0,0.0,1.0,,
IP,001m,1,2024-05-29 10:44:28,187,12.02,23.96,29-May-24,11:43,148.0,150.0,174.0,154.0,158.0,170.0,145.0,5.0,-22.0,0.0,1.0,,
IP,001m,1,2024-05-29 10:45:28,188,12.01,23.87,29-May-24,11:44,297.0,289.0,274.0,264.0,250.0,246.0,292.0,5.0,51.0,0.0,1.0,,
IP,001m,1,2024-05-29 10:46:29,189,12.02,23.87,29-May-24,11:45,299.0,274.0,265.0,260.0,259.0,259.0,245.0,5.0,40.0,0.0,1.0,,
IP,001m,1,2024-05-29 10:47:28,190,12.02,23.87,29-May-24,11:46,200.0,199.0,158.0,178.0,187.0,167.0,190.0,5.0,33.0,0.0,1.0,,
IP,001m,1,2024-05-29 10:48:28,191,12.02,23.96,29-May-24,11:47,217.0,206.0,215.0,182.0,180.0,161.0,184.0,5.0,56.0,0.0,1.0,,
IP,001m,1,2024-05-29 10:49:28,192,12.01,24.1,29-May-24,11:48,281.0,261.0,266.0,272.0,260.0,251.0,254.0,5.0,30.0,0.0,1.0,,
IP,001m,1,2024-05-29 10:50:28,193,12.02,24.22,29-May-24,11:49,64.0,65.0,48.0,67.0,33.0,62.0,22.0,5.0,2.0,0.0,1.0,,
IP,001m,1,2024-05-29 10:51:28,194,12.02,24.3,29-May-24,11:50,140.0,136.0,154.0,124.0,124.0,75.0,98.0,5.0,65.0,0.0,1.0,,
IP,001m,1,2024-05-29 10:52:28,195,12.02,24.39,29-May-24,11:51,242.0,244.0,236.0,215.0,228.0,205.0,223.0,5.0,37.0,0.0,1.0,,
IP,001m,1,2024-05-29 10:53:28,196,12.02,24.36,29-May-24,11:52,-37.0,29.0,-10.0,60.0,25.0,17.0,-26.0,5.0,-54.0,0.0,1.0,,
IP,001m,1,2024-05-29 10:54:28,197,12.02,24.25,29-May-24,11:53,130.0,147.0,203.0,98.0,138.0,99.0,106.0,5.0,31.0,0.0,1.0,,
IP,001m,1,2024-05-29 10:55:28,198,12.02,24.1,29-May-24,11:54,147.0,177.0,157.0,174.0,174.0,161.0,176.0,5.0,-14.0,0.0,1.0,,
IP,001m,1,2024-05-29 10:56:28,199,12.02,23.96,29-May-24,11:55,19.0,97.0,51.0,42.0,54.0,11.0,24.0,5.0,8.0,0.0,1.0,,
IP,001m,1,2024-05-29 10:57:28,200,12.02,23.9,29-May-24,11:56,113.0,78.0,120.0,135.0,82.0,66.0,65.0,5.0,47.0,0.0,1.0,,
IP,001m,1,2024-05-29 10:58:28,201,12.02,23.96,29-May-24,11:57,188.0,180.0,149.0,139.0,155.0,155.0,138.0,5.0,33.0,0.0,1.0,,
IP,001m,1,2024-05-29 10:59:28,202,12.02,24.01,29-May-24,11:58,90.0,104.0,85.0,81.0,97.0,62.0,79.0,5.0,28.0,0.0,1.0,,
IP,001m,1,2024-05-29 11:00:28,203,12.02,24.1,29-May-24,11:59,142.0,107.0,143.0,144.0,112.0,87.0,106.0,5.0,55.0,0.0,1.0,,
IP,001m,1,2024-05-29 11:01:28,204,12.02,24.22,29-May-24,12:00,25.0,46.0,18.0,25.0,19.0,-47.0,-50.0,5.0,72.0,0.0,1.0,,
IP,001m,1,2024-05-29 11:02:28,205,12.02,24.33,29-May-24,12:01,99.0,101.0,100.0,104.0,97.0,68.0,44.0,5.0,31.0,0.0,1.0,,
IP,001m,1,2024-05-29 11:03:28,206,12.02,24.33,29-May-24,12:02,159.0,194.0,190.0,148.0,132.0,136.0,146.0,5.0,23.0,0.0,1.0,,
IP,001m,1,2024-05-29 11:04:28,207,12.02,24.22,29-May-24,12:03,349.0,327.0,341.0,305.0,327.0,330.0,350.0,5.0,19.0,0.0,1.0,,
IP,001m,1,2024-05-29 11:05:28,208,12.02,24.04,29-May-24,12:04,-257.0,-114.0,-158.0,-116.0,-140.0,-191.0,-237.0,5.0,-66.0,0.0,1.0,,
IP,001m,1,2024-05-29 11:06:28,209,12.02,23.87,29-May-24,12:05,240.0,225.0,244.0,192.0,204.0,206.0,217.0,5.0,34.0,0.0,1.0,,
IP,001m,1,2024-05-29 11:07:28,210,12.01,23.84,29-May-24,12:06,172.0,169.0,166.0,160.0,136.0,122.0,150.0,5.0,50.0,0.0,1.0,,
IP,001m,1,2024-05-29 11:08:28,211,12.02,23.87,29-May-24,12:07,468.0,326.0,355.0,340.0,327.0,382.0,378.0,5.0,86.0,0.0,1.0,,
IP,001m,1,2024-05-29 11:09:28,212,12.02,23.99,29-May-24,12:08,90.0,118.0,59.0,64.0,93.0,73.0,95.0,5.0,17.0,0.0,1.0,,
IP,001m,1,2024-05-29 11:10:28,213,12.02,24.04,29-May-24,12:09,176.0,148.0,171.0,162.0,153.0,164.0,164.0,5.0,12.0,0.0,1.0,,
IP,001m,1,2024-05-29 11:11:28,214,12.02,24.13,29-May-24,12:10,198.0,215.0,165.0,159.0,161.0,159.0,151.0,5.0,39.0,0.0,1.0,,
IP,001m,1,2024-05-29 11:12:28,215,12.02,24.22,29-May-24,12:11,165.0,99.0,130.0,132.0,119.0,111.0,103.0,5.0,54.0,0.0,1.0,,
IP,001m,1,2024-05-29 11:13:28,216,12.02,24.33,29-May-24,12:12,68.0,100.0,69.0,72.0,85.0,42.0,77.0,5.0,26.0,0.0,1.0,,
IP,001m,1,2024-05-29 11:14:28,217,12.02,24.36,29-May-24,12:13,-35.0,7.0,14.0,1.0,-5.0,-61.0,-105.0,5.0,26.0,0.0,1.0,,
IP,001m,1,2024-05-29 11:15:28,218,12.02,24.28,29-May-24,12:14,-46.0,29.0,40.0,18.0,5.0,-7.0,-7.0,5.0,-39.0,0.0,1.0,,
IP,001m,1,2024-05-29 11:16:28,219,12.01,24.1,29-May-24,12:15,200.0,206.0,198.0,186.0,198.0,138.0,170.0,5.0,62.0,0.0,1.0,,
IP,001m,1,2024-05-29 11:17:29,220,12.01,23.93,29-May-24,12:16,-82.0,-6.0,-25.0,1.0,-38.0,-41.0,-70.0,5.0,-41.0,0.0,1.0,,
IP,001m,1,2024-05-29 11:18:28,221,12.01,23.87,29-May-24,12:17,311.0,277.0,259.0,225.0,253.0,226.0,259.0,5.0,85.0,0.0,1.0,,
IP,001m,1,2024-05-29 11:19:28,222,12.02,23.93,29-May-24,12:18,388.0,315.0,296.0,282.0,287.0,310.0,359.0,5.0,78.0,0.0,1.0,,
IP,001m,1,2024-05-29 11:20:28,223,12.02,23.99,29-May-24,12:19,143.0,132.0,136.0,127.0,105.0,126.0,124.0,5.0,17.0,0.0,1.0,,
IP,001m,1,2024-05-29 11:21:28,224,12.01,24.04,29-May-24,12:20,401.0,314.0,330.0,328.0,337.0,382.0,365.0,5.0,19.0,0.0,1.0,,
IP,001m,1,2024-05-29 11:22:28,225,12.01,24.1,29-May-24,12:21,105.0,110.0,75.0,102.0,61.0,52.0,35.0,5.0,53.0,0.0,1.0,,
IP,001m,1,2024-05-29 11:23:28,226,12.02,24.19,29-May-24,12:22,256.0,194.0,195.0,153.0,170.0,204.0,209.0,5.0,52.0,0.0,1.0,,
IP,001m,1,2024-05-29 11:24:28,227,12.02,24.3,29-May-24,12:23,62.0,86.0,96.0,80.0,82.0,38.0,83.0,5.0,24.0,0.0,1.0,,
IP,001m,1,2024-05-29 11:25:28,228,12.02,24.39,29-May-24,12:24,306.0,244.0,253.0,246.0,232.0,294.0,256.0,5.0,12.0,0.0,1.0,,
IP,001m,1,2024-05-29 11:26:28,229,12.02,24.33,29-May-24,12:25,202.0,217.0,196.0,194.0,199.0,179.0,192.0,5.0,23.0,0.0,1.0,,
IP,001m,1,2024-05-29 11:27:28,230,12.02,24.16,29-May-24,12:26,120.0,150.0,163.0,162.0,155.0,163.0,166.0,5.0,-43.0,0.0,1.0,,
IP,001m,1,2024-05-29 11:28:28,231,12.02,23.99,29-May-24,12:27,116.0,166.0,131.0,116.0,142.0,115.0,116.0,5.0,1.0,0.0,1.0,,
IP,001m,1,2024-05-29 11:29:28,232,12.02,23.87,29-May-24,12:28,164.0,140.0,157.0,151.0,135.0,146.0,143.0,5.0,18.0,0.0,1.0,,
IP,001m,1,2024-05-29 11:30:28,233,12.02,23.87,29-May-24,12:29,155.0,128.0,152.0,139.0,122.0,161.0,129.0,5.0,-6.0,0.0,1.0,,
IP,001m,1,2024-05-29 11:31:28,234,12.02,23.93,29-May-24,12:30,218.0,212.0,171.0,166.0,164.0,135.0,201.0,5.0,83.0,0.0,1.0,,
IP,001m,1,2024-05-29 11:32:28,235,12.02,23.99,29-May-24,12:31,171.0,165.0,160.0,166.0,179.0,167.0,127.0,5.0,4.0,0.0,1.0,,
IP,001m,1,2024-05-29 11:33:28,236,12.02,24.04,29-May-24,12:32,183.0,160.0,147.0,133.0,105.0,112.0,146.0,5.0,71.0,0.0,1.0,,
IP,001m,1,2024-05-29 11:34:28,237,12.01,24.1,29-May-24,12:33,4.0,-8.0,7.0,-6.0,7.0,16.0,-27.0,5.0,-12.0,0.0,1.0,,
IP,001m,1,2024-05-29 11:35:28,238,12.02,24.22,29-May-24,12:34,448.0,413.0,384.0,379.0,366.0,356.0,395.0,5.0,92.0,0.0,1.0,,
IP,001m,1,2024-05-29 11:36:28,239,12.02,24.3,29-May-24,12:35,48.0,59.0,34.0,49.0,47.0,24.0,12.0,5.0,24.0,0.0,1.0,,
IP,001m,1,2024-05-29 11:37:28,240,12.02,24.25,29-May-24,12:36,-32.0,19.0,31.0,25.0,11.0,-6.0,-40.0,5.0,-26.0,0.0,1.0,,
IP,001m,1,2024-05-29 11:38:28,241,12.01,24.1,29-May-24,12:37,56.0,109.0,113.0,94.0,87.0,65.0,91.0,5.0,-9.0,0.0,1.0,,
IP,001m,1,2024-05-29 11:39:28,242,12.01,23.93,29-May-24,12:38,28.0,84.0,71.0,70.0,87.0,22.0,4.0,5.0,6.0,0.0,1.0,,
IP,001m,1,2024-05-29 11:40:28,243,12.02,23.81,29-May-24,12:39,58.0,57.0,62.0,63.0,60.0,53.0,74.0,5.0,5.0,0.0,1.0,,
IP,001m,1,2024-05-29 11:41:28,244,12.01,23.78,29-May-24,12:40,129.0,112.0,108.0,110.0,113.0,80.0,90.0,5.0,49.0,0.0,1.0,,
IP,001m,1,2024-05-29 11:42:28,245,12.02,23.84,29-May-24,12:41,311.0,279.0,260.0,262.0,235.0,270.0,260.0,5.0,41.0,0.0,1.0,,
IP,001m,1,2024-05-29 11:43:28,246,12.02,23.9,29-May-24,12:42,-80.0,-56.0,-35.0,-72.0,-77.0,-122.0,-86.0,5.0,42.0,0.0,1.0,,
IP,001m,1,2024-05-29 11:44:28,247,12.02,23.96,29-May-24,12:43,436.0,345.0,324.0,320.0,320.0,357.0,329.0,5.0,79.0,0.0,1.0,,
IP,001m,1,2024-05-29 11:45:28,248,12.02,24.01,29-May-24,12:44,89.0,113.0,103.0,96.0,81.0,55.0,58.0,5.0,34.0,0.0,1.0,,
IP,001m,1,2024-05-29 11:46:28,249,12.01,24.1,29-May-24,12:45,-77.0,-54.0,-50.0,-62.0,-51.0,-85.0,-75.0,5.0,8.0,0.0,1.0,,
IP,001m,1,2024-05-29 11:47:28,250,12.02,24.25,29-May-24,12:46,349.0,298.0,264.0,265.0,241.0,236.0,243.0,5.0,113.0,0.0,1.0,,
IP,001m,1,2024-05-29 11:48:28,251,12.02,24.3,29-May-24,12:47,7.0,13.0,56.0,68.0,60.0,59.0,44.0,5.0,-52.0,0.0,1.0,,
IP,001m,1,2024-05-29 11:49:28,252,12.02,24.25,29-May-24,12:48,246.0,260.0,220.0,220.0,205.0,222.0,206.0,5.0,24.0,0.0,1.0,,